Hourly Data Report for January 26, 2006

TORONTO CITY
ONTARIO

43°40'00.000" N
79°24'00.000" W
112.50 m
6158355
71508
XTO

Download Data

Hourly Data (January 2006)
Hourly Data Report for January 26, 2006
TIME
LST
Temp Definition
°C
Dew Point Definition
°C
Rel Hum Definition
%
Precip. Amount Definition
mm

Wind Dir Definition
10's deg

Wind Spd Definition
km/h
Visibility Definition
km
Stn Press Definition
kPa
Hmdx Definition


Wind Chill Definition


Weather Definition


00:00 -6.8 -11.2 71   LegendMM LegendMM   100.72     LegendNANA
01:00 -8.0 -12.2 72   LegendMM LegendMM   100.79     LegendNANA
02:00 -8.7 -12.5 74   LegendMM LegendMM   100.86     LegendNANA
03:00 -9.4 -13.1 74   LegendMM LegendMM   100.96     LegendNANA
04:00 -10.0 -13.7 74   LegendMM LegendMM   101.00     LegendNANA
05:00 -10.6 -14.5 73   LegendMM LegendMM   101.10     LegendNANA
06:00 -11.5 -15.3 73   LegendMM LegendMM   101.19     LegendNANA
07:00 -11.6 -15.4 73   LegendMM LegendMM   101.28     LegendNANA
08:00 -11.7 -15.2 75   LegendMM LegendMM   101.43     LegendNANA
09:00 -11.4 -15.3 73   LegendMM LegendMM   101.55     LegendNANA
10:00 -9.9 -14.7 68   LegendMM LegendMM   101.65     LegendNANA
11:00 -8.5 -14.4 62   LegendMM LegendMM   101.71     LegendNANA
12:00 -7.7 -14.3 59   LegendMM LegendMM   101.74     LegendNANA
13:00 -7.2 -14.7 55   LegendMM LegendMM   101.75     LegendNANA
14:00 -5.8 -14.0 52   LegendMM LegendMM   101.76     LegendNANA
15:00 -5.0 -12.9 54   LegendMM LegendMM   101.79     LegendNANA
16:00 -4.4 -14.2 46   LegendMM LegendMM   101.85     LegendNANA
17:00 -4.2 -12.5 52   LegendMM LegendMM   101.84     LegendNANA
18:00 -4.9 -11.2 61   LegendMM LegendMM   101.93     LegendNANA
19:00 -5.7 -11.5 64   LegendMM LegendMM   101.96     LegendNANA
20:00 -6.3 -11.4 67   LegendMM LegendMM   101.98     LegendNANA
21:00 -6.5 -11.2 69   LegendMM LegendMM   102.02     LegendNANA
22:00 -6.7 -11.1 71   LegendMM LegendMM   102.05     LegendNANA
23:00 -6.8 -10.7 74   LegendMM LegendMM   102.05     LegendNANA

Notes on Data Quality.

Legend

  • E = Estimated
  • M = Missing
  • NA = Not Available*
  • [empty] = Indicates an unobserved value
Date modified: